DateTimeUTC,F1_A11,F1_S11,BsB_S11,BsG_S11,BsR_S11,BbsB_S11,BbsG_S11,BbsR_S11,BaB_A11,BaG_A11,BaR_A11,Tu_S11,T_S11,Uu_S11,U_S11,P_S11,T1_A11
2021-10-26T12:00:00Z,00000200,21000000,,,,,,,-000.18,-000.26,-000.16,17.4,24.4,,00.0,0643.6,31.0
2021-10-26T12:01:00Z,00000200,21000000,,,,,,,-000.00,-000.18,-000.33,17.3,24.4,,00.0,0643.6,31.0
2021-10-26T12:02:00Z,00000200,21000000,,,,,,,-000.11,-000.18,-000.09,17.3,24.4,,00.0,0643.6,31.0
2021-10-26T12:03:00Z,00000200,61000000,,,,,,,-000.27,0000.12,-000.05,17.3,24.4,,00.0,0643.6,31.0
2021-10-26T12:04:00Z,00000200,41000000,0000.44,0000.03,-000.25,-000.74,0000.26,-000.15,-000.12,-000.11,0000.19,17.6,24.3,,00.0,0644.5,31.0
2021-10-26T12:05:00Z,00000200,01000000,-000.16,-000.06,-000.36,0000.06,-000.06,-000.17,0000.30,-000.23,0000.31,17.7,24.3,,00.0,0644.5,31.0
2021-10-26T12:06:00Z,00000200,01000000,0000.73,0000.25,-000.08,-000.45,-000.20,-000.12,0000.17,0000.58,0000.24,17.8,24.3,,00.0,0644.6,31.0
2021-10-26T12:07:00Z,00000200,01000000,0000.70,-000.22,0000.05,0000.10,0000.18,0000.06,-000.33,0000.02,-000.51,17.9,24.4,,00.0,0644.6,31.0
2021-10-26T12:08:00Z,00000200,01000000,-000.30,-000.18,0000.03,0000.56,-000.10,0000.05,0000.18,-000.08,0000.05,18.0,24.4,,00.0,0644.6,31.1
2021-10-26T12:09:00Z,00000200,01000000,0000.09,0000.09,-000.25,0000.34,-000.02,0000.04,-000.37,-000.07,0000.17,18.1,24.5,,00.0,0644.7,31.1
2021-10-26T12:10:00Z,00000200,01000000,0000.10,-000.15,-000.19,-000.35,0000.18,-000.03,0000.37,0000.04,-000.31,18.2,24.5,,00.0,0644.7,31.1
2021-10-26T12:11:00Z,00000200,01000000,0000.93,0000.29,-000.04,0000.29,0000.08,0000.07,-000.25,-000.04,0000.25,18.3,24.6,,00.0,0644.8,31.1
2021-10-26T12:12:00Z,00000200,01000000,-000.08,-000.29,0000.08,-000.20,0000.06,-000.15,-000.12,0000.22,-000.12,18.4,24.6,,00.0,0644.8,31.1
2021-10-26T12:13:00Z,00000200,01000000,-000.65,0000.17,-000.15,0000.68,0000.18,-000.01,-000.17,-000.62,-000.10,18.4,24.7,,00.0,0644.8,31.1
2021-10-26T12:14:00Z,00000200,01000000,0000.00,-000.06,-000.18,-000.23,-000.15,-000.01,-000.15,-000.18,-000.23,18.4,24.7,,00.0,0644.8,31.1
2021-10-26T12:15:00Z,00000200,01000000,0000.52,0000.38,-000.26,-000.25,-000.06,-000.37,-000.10,0000.08,-000.06,18.3,24.6,,00.0,0644.8,31.1
2021-10-26T12:16:00Z,00000200,01000000,-000.21,-000.17,-000.16,0000.13,-000.09,-000.09,0000.05,-000.50,0000.06,18.2,24.6,,00.0,0644.8,31.0
2021-10-26T12:17:00Z,00000200,01000000,0000.00,0000.04,-000.10,-000.47,0000.24,0000.45,-000.37,-000.06,-000.47,18.2,24.6,,00.0,0644.8,31.0
2021-10-26T12:18:00Z,00000200,01000000,0000.52,0000.25,-000.27,-000.07,0000.15,-000.09,-000.33,0000.07,-000.08,18.1,24.6,,00.0,0644.8,31.0
2021-10-26T12:19:00Z,00000200,01000000,0000.08,0000.29,-000.10,-000.02,0000.16,-000.15,0000.33,-000.22,0000.26,18.1,24.6,,00.0,0644.8,31.1
2021-10-26T12:20:00Z,00000200,01000000,0000.60,0000.64,-000.15,0000.18,0000.07,-000.17,0000.13,0000.26,0000.29,18.1,24.6,,00.0,0644.9,31.0
2021-10-26T12:21:00Z,00000200,01000000,0000.34,0000.38,-000.10,-000.28,-000.07,0000.22,-000.10,-000.04,-000.33,18.2,24.6,,00.0,0644.9,31.0
2021-10-26T12:22:00Z,00000200,01000000,0000.02,0000.19,-000.21,0000.38,-000.01,0000.31,0000.09,0000.28,0000.35,18.2,24.6,,00.0,0644.9,31.0
2021-10-26T12:23:00Z,00000200,01000000,0000.97,0000.04,0000.04,-000.03,-000.17,-000.05,0000.25,-000.49,-000.35,18.2,24.6,,00.0,0644.9,31.0
2021-10-26T12:24:00Z,00000200,01000000,0000.59,-000.10,-000.08,0000.38,0000.38,0000.04,-000.51,0000.19,0000.49,18.2,24.6,,00.0,0644.9,31.0
2021-10-26T12:25:00Z,00000200,01000000,0000.38,-000.12,-000.16,0000.50,-000.16,-000.18,-000.09,-000.03,-000.50,18.1,24.6,,00.0,0644.9,31.0
2021-10-26T12:26:00Z,00000200,01000000,0000.01,0000.05,-000.08,-000.05,-000.06,-000.14,-000.09,0000.04,0000.08,18.1,24.6,,00.0,0644.9,31.0
2021-10-26T12:27:00Z,00000200,01000000,0000.33,-000.01,-000.16,-000.41,0000.12,0000.12,0000.07,-000.17,-000.19,18.0,24.5,,00.0,0644.9,31.0
2021-10-26T12:28:00Z,00000200,01000000,0000.78,-000.01,-000.23,-000.03,-000.13,0000.09,0000.20,0000.11,0000.32,18.0,24.5,,00.0,0644.9,31.0
2021-10-26T12:29:00Z,00000200,01000000,-000.41,0000.09,-000.27,0000.18,-000.16,-000.03,0000.15,-000.05,-000.48,17.9,24.5,,00.0,0644.9,31.0
2021-10-26T12:30:00Z,00000200,01000000,0000.59,-000.14,0000.31,-000.26,0000.04,0000.10,-000.00,0000.11,0000.27,17.8,24.5,,00.0,0644.9,31.0
2021-10-26T12:31:00Z,00000200,01000000,0000.27,-000.16,-000.07,0000.24,-000.28,-000.06,-000.27,0000.08,0000.00,17.8,24.5,,00.0,0644.9,30.9
2021-10-26T12:32:00Z,00000200,01000000,-000.03,0000.10,-000.23,-000.31,-000.00,-000.17,0000.31,-000.26,-000.07,17.8,24.4,,00.0,0644.9,30.9
2021-10-26T12:33:00Z,00000200,01000000,0000.25,-000.12,-000.08,0000.26,-000.16,-000.30,-000.56,-000.07,0000.18,17.7,24.4,,00.0,0644.9,31.0
2021-10-26T12:34:00Z,00000200,01000000,0000.32,-000.29,0000.07,-000.30,-000.25,-000.01,0000.32,-000.25,-000.28,17.7,24.4,,00.0,0644.9,31.0
2021-10-26T12:35:00Z,00000200,01000000,0000.36,0000.05,-000.33,0000.13,0000.07,-000.20,-000.03,0000.22,0000.23,17.7,24.4,,00.0,0644.9,31.0
2021-10-26T12:36:00Z,00000200,01000000,-000.40,0000.09,-000.36,-000.36,0000.17,-000.04,-000.24,0000.15,0000.05,17.8,24.4,,00.0,0644.9,31.0
2021-10-26T12:37:00Z,00000200,01000000,-000.24,-000.09,-000.31,0000.17,-000.04,-000.09,0000.34,0000.21,0000.15,17.9,24.4,,00.0,0644.9,31.0
2021-10-26T12:38:00Z,00000200,01000000,0000.17,0000.18,-000.00,0000.69,0000.10,-000.19,-000.02,0000.17,-000.21,18.0,24.5,,00.0,0644.9,31.0
2021-10-26T12:39:00Z,00000200,01000000,-000.48,-000.22,-000.18,0000.23,0000.19,-000.23,0000.04,-000.38,-000.01,18.1,24.5,,00.0,0645.0,31.1
2021-10-26T12:40:00Z,00000200,01000000,0000.26,0000.11,-000.18,-000.22,-000.33,-000.03,-000.10,0000.15,0000.16,18.1,24.6,,00.0,0645.0,31.1
2021-10-26T12:41:00Z,00000200,01000000,0000.25,0000.03,-000.09,-000.06,-000.12,-000.06,-000.08,-000.14,-000.16,18.2,24.6,,00.0,0645.0,31.1
2021-10-26T12:42:00Z,00000200,01000000,0000.49,-000.10,-000.05,0000.63,0000.24,0000.26,-000.16,0000.13,-000.13,18.1,24.6,,00.0,0645.0,31.0
2021-10-26T12:43:00Z,00000200,01000000,-000.17,0000.28,-000.09,0000.07,0000.10,-000.23,0000.33,-000.05,0000.23,18.1,24.6,,00.0,0645.0,31.0
2021-10-26T12:44:00Z,00000200,01000000,0000.10,0000.02,-000.36,-000.00,0000.20,-000.20,-000.34,-000.11,-000.35,18.0,24.5,,00.0,0645.0,31.0
2021-10-26T12:45:00Z,00000200,01000000,-000.22,-000.35,-000.05,-000.12,0000.18,0000.11,-000.02,-000.12,0000.45,18.0,24.5,,00.0,0645.0,31.0
2021-10-26T12:46:00Z,00000200,01000000,0000.14,-000.04,-000.05,-000.52,-000.03,0000.14,0000.01,-000.35,-000.12,17.9,24.5,,00.0,0645.0,31.0
2021-10-26T12:47:00Z,00000200,01000000,0000.37,-000.20,-000.20,0000.30,0000.12,-000.01,-000.22,-000.04,-000.08,17.9,24.5,,00.0,0645.1,31.0
2021-10-26T12:48:00Z,00000200,01000000,0000.90,-000.12,-000.33,0000.01,-000.17,0000.04,-000.11,-000.21,-000.56,17.8,24.4,,00.0,0645.1,31.0
2021-10-26T12:49:00Z,00000200,01000000,0000.64,-000.30,-000.31,-000.02,-000.15,-000.19,-000.15,-000.06,0000.21,17.8,24.4,,00.0,0645.1,31.0
2021-10-26T12:50:00Z,00000200,01000000,0000.08,0000.01,-000.12,0000.19,0000.04,0000.07,0000.50,0000.17,-000.03,17.8,24.4,,00.0,0645.1,31.0
2021-10-26T12:51:00Z,00000200,01000000,0000.67,0000.11,-000.49,0000.53,0000.19,-000.19,-000.17,-000.04,-000.17,17.9,24.4,,00.0,0645.2,31.0
2021-10-26T12:52:00Z,00000200,01000000,0000.01,-000.27,-000.32,0000.31,0000.22,0000.07,-000.22,-000.20,0000.10,18.0,24.5,,00.0,0645.2,31.0
2021-10-26T12:53:00Z,00000200,01000000,0000.28,0000.07,-000.45,-000.15,-000.10,-000.14,0000.09,0000.46,0000.52,18.1,24.5,,00.0,0645.2,31.0
2021-10-26T12:54:00Z,00000200,01000000,0000.45,0000.33,0000.01,0000.32,0000.21,-000.17,0000.11,-000.15,-000.37,18.1,24.5,,00.0,0645.2,31.1
2021-10-26T12:55:00Z,00000200,01000000,0000.23,-000.00,-000.19,0000.02,0000.20,0000.11,-000.26,0000.24,0000.22,18.2,24.6,,00.0,0645.2,31.1
2021-10-26T12:56:00Z,00000200,01000000,0000.59,-000.02,-000.18,0000.38,0000.42,-000.12,0000.03,0000.17,0000.11,18.2,24.6,,00.0,0645.2,31.1
2021-10-26T12:57:00Z,00000200,41000000,,,,,,,0002.39,0001.61,0001.23,18.3,24.7,,00.0,0645.1,31.0
2021-10-26T12:58:00Z,00000200,61000000,,,,,,,-001.22,-000.80,-000.72,17.9,24.7,,00.0,0644.3,31.0
2021-10-26T12:59:00Z,00000200,21000000,,,,,,,-000.27,-000.14,-000.38,17.9,24.8,,00.0,0644.3,31.0
